Lexington Weather

Lexington, Massachusetts, USA

46°F
10/26/2020 5:59am 
  • Lexington Conditions: Overcast
  • Temperature: 46.0°F / 7.8°CWarmer 0.9°F than last hour.
  • Dew Point: 40.8°FIncreased 1.1°Fsince last hour.
  • Relative Humidity: 82%Increased 1.0% since last hour.
  • Wind: Wind from S S 2 mph, 10-min avg: Calm, gust: 2 mph
  • Barometer: 30.27 in Steady
  • Visibility: 10 miles
  • Rain Today: 0.00 in
  •   

Regional Weather Roundup
for Boston / Norton, MA

        
000
ASUS41 KBOX 252204
RWRBOX

REGIONAL WEATHER ROUNDUP
NATIONAL WEATHER SERVICE BOSTON/NORTON MA
600 PM EDT SUN OCT 25 2020

NOTE:  "FAIR" INDICATES FEW OR NO CLOUDS BELOW 12,000 FEET WITH NO 
SIGNIFICANT WEATHER AND/OR OBSTRUCTIONS TO VISIBILITY.

MAZALL-252300-
EASTERN MASSACHUSETTS
  
CITY           SKY/WX    TMP DP  RH WIND       PRES   REMARKS
BOSTON         CLOUDY    47  35  63 E6        30.34R                  
BEVERLY        PTCLDY    46  34  62 E3        30.32R                  
LAWRENCE       PTCLDY    46  34  62 E5        30.34R                  
BEDFORD        CLOUDY    47  36  65 SE6       30.32R                  
BLUE HILL        N/A     43  36  76 E12       30.30R                  
NORWOOD        PTCLDY    47  36  65 NE3       30.32R                  
MARSHFIELD     CLOUDY    50  37  62 E10       30.32R                  
PLYMOUTH       MOCLDY    48  37  65 E8        30.31R                  
TAUNTON        MOCLDY    48  37  65 NE3       30.32R                  
NEW BEDFORD    MOCLDY    47  37  68 NE5       30.31R                  
$$

MAZALL-252300-
CAPE COD AND THE ISLANDS
  
CITY           SKY/WX    TMP DP  RH WIND       PRES   REMARKS
FALMOUTH       NOT AVBL                                               
HYANNIS        MOCLDY    47  38  71 E5        30.30R                  
CHATHAM        MOCLDY    49  37  63 NE7       30.32R                  
PROVINCETOWN   MOCLDY    47  37  68 NE8       30.33R                  
NANTUCKET      MOCLDY    52  39  61 NE10      30.30R                  
MARTHAS VNYRD  MOCLDY    50  38  63 NE12      30.29S                  
$$
 
MAZALL-252300-
CENTRAL AND WESTERN MASSACHUSETTS
  
CITY           SKY/WX    TMP DP  RH WIND       PRES   REMARKS
WORCESTER      CLOUDY    46  33  60 VRB3      30.28R                  
FITCHBURG      PTCLDY    47  34  60 E3        30.32R                  
ORANGE         CLEAR     44  35  70 CALM      30.30R                  
SPRINGFIELD    MOCLDY    48  32  54 N5        30.28R                  
WESTFIELD      CLOUDY    48  35  60 N6        30.29R                  
NORTH ADAMS    CLEAR     45  33  63 SE3       30.27R                  
PITTSFIELD     MOCLDY    45  28  51 SE6       30.25R                  
$$
 
RIZALL-252300-
RHODE ISLAND
  
CITY           SKY/WX    TMP DP  RH WIND       PRES   REMARKS
PROVIDENCE     CLOUDY    50  38  63 NE12      30.31R                  
NEWPORT        CLOUDY    49  38  65 NE8       30.29R                  
BLOCK ISLAND   CLOUDY    51  41  68 NE7       30.28S                  
SMITHFIELD     CLOUDY    47  39  74 E6        30.31R                  
WESTERLY       CLOUDY    52  39  61 NE6       30.29R                  
$$
 
CTZALL-252300-
CONNECTICUT
  
CITY           SKY/WX    TMP DP  RH WIND       PRES   REMARKS
BRADLEY INTL   MOCLDY    49  33  54 N5        30.28S                  
HARTFORD       PTCLDY    50  33  52 NE6       30.28S                  
BRIDGEPORT     LGT RAIN  54  41  61 NE7       30.26S                  
DANBURY        LGT RAIN  49  34  56 E5        30.26R                  
GROTON         CLOUDY    53  41  63 E9        30.27S                  
NEW HAVEN      CLOUDY    54  40  59 NE6       30.26R                  
CHESTER        FAIR      52  37  58 CALM      30.26S                  
MERIDEN        MOCLDY    50  34  54 NE5       30.28R                  
WILLIMANTIC    MOCLDY    52  36  54 CALM      30.29R                  
OXFORD         CLOUDY    48  35  60 E7        30.27R                  
$$

MEZ002-015-021-024-NHZ003-005-008-011-012-014-VTZ005-008-252300-
NORTHERN NEW ENGLAND
  
CITY           SKY/WX    TMP DP  RH WIND       PRES   REMARKS
PORTLAND ME    CLEAR     45  25  45 N5        30.34R                  
BANGOR ME      MOCLDY    39  24  55 N6        30.35R                  
CONCORD NH     CLEAR     45  28  51 CALM      30.30R                  
MANCHESTER NH  PTCLDY    48  30  49 E3        30.30R                  
NASHUA NH      CLEAR     44  36  73 CALM      30.33R                  
PORTSMOUTH NH  MOCLDY    44  32  63 E6        30.31R                  
JAFFREY NH     CLEAR     42  30  62 CALM      30.29R                  
KEENE NH       CLEAR     44  32  62 CALM      30.30R                  
BURLINGTON VT  MOCLDY    41  24  51 N7        30.35S                  
MT. WASHINGTON MOCLDY    23  -2  33 S13         N/A  WCI  11          
$$

NYZ052-076-252300-
EASTERN NEW YORK
  
CITY           SKY/WX    TMP DP  RH WIND       PRES   REMARKS
ALBANY         PTCLDY    42  29  59 N6        30.30R                  
NEW YORK CITY  CLOUDY    53  34  48 E9        30.25S                  
$$
 
ANZALL-252300-
MARINE OBSERVATIONS
  
STATION/POSITION TIME  TEMP    WIND        PRES    VSBY  WAVE
                       AIR SEA DIR/SP/G                  HT/PER
                 (UTC) (F)     (DEG/KT/KT) (MB)    (MI)  (FT/S)
BOSTON BUOY      2150   48 57   70/ 10/ 12 1025.9R         5/11
BUZZARDS BAY     2100           60/ 15/ 17 1026.2R
NANTUCKET SOUND  2150      62   50/ 14/ 17   N/A           2/ 4
MASS BAY-STELLWA 2104   48 56   30/  6/ 10 1026.1R  1 7/8  5/11
ISLE OF SHOALS   2100   46     100/  4/  5 1026.3R
S OF BLOCK IS    2126      62                N/A           4/11
$$

......................KEY.........................
  SKY/WX - SKY CONDITION/PRESENT WEATHER
  TMP    - TEMPERATURE IN FAHRENHEIT
  DWPT   - DEWPOINT IN FAHRENHEIT
  RH     - RELATIVE HUMIDITY IN PERCENT
  WIND   - DIRECTION AND SPEED IN MPH
  PRES   - MEAN SEA LEVEL PRESSURE IN INCHES OF HG
  WCI    - WIND CHILL INDEX
  VSB    - VISIBILITY IN MILES
  HX     - HEAT INDEX
  TC     - TEMPERATURE IN CELSIUS
  VRB    - VARIABLE WIND DIRECTION
  N/A    - NOT AVAILABLE
  
      

Other recent Regional Weather Roundups

Mon Oct 26, 5:04am

Mon Oct 26, 4:04am

Mon Oct 26, 3:04am

Mon Oct 26, 2:04am

Mon Oct 26, 1:04am

Mon Oct 26, 12:04am

Sun Oct 25, 11:05pm

Sun Oct 25, 10:04pm

Sun Oct 25, 9:04pm

Sun Oct 25, 8:04pm

Sun Oct 25, 7:04pm

Sun Oct 25, 5:04pm

Sun Oct 25, 4:05pm

Sun Oct 25, 3:04pm

Sun Oct 25, 2:04pm

Sun Oct 25, 1:04pm

Sun Oct 25, 12:04pm

Sun Oct 25, 11:04am

Sun Oct 25, 10:04am

Sun Oct 25, 9:04am

Sun Oct 25, 8:04am

Sun Oct 25, 7:04am

Sun Oct 25, 6:04am

Sun Oct 25, 5:04am

Sun Oct 25, 4:04am

Sun Oct 25, 3:04am

Sun Oct 25, 2:04am

Sun Oct 25, 1:05am

Sun Oct 25, 12:04am

Sat Oct 24, 11:04pm

Sat Oct 24, 10:04pm

Sat Oct 24, 9:04pm

Sat Oct 24, 8:04pm

Sat Oct 24, 7:04pm

Sat Oct 24, 6:04pm

Sat Oct 24, 5:05pm

Sat Oct 24, 4:04pm

Sat Oct 24, 3:04pm

Sat Oct 24, 2:04pm

Sat Oct 24, 1:05pm

Sat Oct 24, 12:04pm

Sat Oct 24, 11:05am

Sat Oct 24, 10:05am

Sat Oct 24, 9:04am

Sat Oct 24, 8:04am

Sat Oct 24, 7:04am

Sat Oct 24, 6:04am

Sat Oct 24, 5:04am

Sat Oct 24, 4:04am

Sat Oct 24, 3:04am

Sat Oct 24, 2:04am

Sat Oct 24, 1:05am

Sat Oct 24, 12:04am

Fri Oct 23, 11:04pm

Fri Oct 23, 10:04pm

Fri Oct 23, 9:04pm

Fri Oct 23, 8:05pm

Fri Oct 23, 7:04pm

Fri Oct 23, 6:04pm

Fri Oct 23, 5:05pm

Fri Oct 23, 4:04pm

Fri Oct 23, 3:04pm

Fri Oct 23, 2:05pm

Fri Oct 23, 1:04pm

Fri Oct 23, 12:04pm

Fri Oct 23, 11:04am

Fri Oct 23, 10:04am

Fri Oct 23, 9:04am

Fri Oct 23, 8:04am

Fri Oct 23, 7:04am

Fri Oct 23, 6:04am

Fri Oct 23, 5:04am

Fri Oct 23, 4:04am

Fri Oct 23, 3:04am

Fri Oct 23, 2:04am

Fri Oct 23, 1:04am

Fri Oct 23, 12:04am

Thu Oct 22, 11:04pm

Thu Oct 22, 10:04pm

Thu Oct 22, 9:05pm

Thu Oct 22, 8:04pm

Thu Oct 22, 7:05pm

Thu Oct 22, 6:04pm

Thu Oct 22, 5:04pm

Thu Oct 22, 4:05pm

Thu Oct 22, 3:04pm

Thu Oct 22, 2:05pm

Thu Oct 22, 1:04pm

Thu Oct 22, 12:04pm

Thu Oct 22, 11:04am

Thu Oct 22, 10:05am

Thu Oct 22, 9:04am

Thu Oct 22, 8:05am

Thu Oct 22, 7:04am

Thu Oct 22, 6:04am

Thu Oct 22, 5:04am

Thu Oct 22, 4:04am

Thu Oct 22, 3:04am

Thu Oct 22, 2:04am

Thu Oct 22, 1:04am

Thu Oct 22, 12:04am

Wed Oct 21, 11:05pm

Wed Oct 21, 10:04pm

Wed Oct 21, 9:04pm

Wed Oct 21, 8:04pm

Wed Oct 21, 7:04pm

Wed Oct 21, 6:04pm

Wed Oct 21, 5:05pm

Wed Oct 21, 4:04pm

Wed Oct 21, 3:04pm

Wed Oct 21, 2:05pm

Wed Oct 21, 1:04pm

Wed Oct 21, 12:04pm

Wed Oct 21, 11:04am

Wed Oct 21, 10:04am

Wed Oct 21, 9:04am

Wed Oct 21, 8:04am

Wed Oct 21, 7:04am

Wed Oct 21, 6:04am

Wed Oct 21, 5:04am

Wed Oct 21, 4:04am

Wed Oct 21, 3:04am

Wed Oct 21, 2:04am

Wed Oct 21, 1:04am

Wed Oct 21, 12:04am

Tue Oct 20, 11:05pm

Tue Oct 20, 10:04pm

Tue Oct 20, 9:04pm

Tue Oct 20, 8:05pm

Tue Oct 20, 7:04pm

Tue Oct 20, 6:04pm

Tue Oct 20, 5:05pm

Tue Oct 20, 4:04pm

Tue Oct 20, 3:05pm

Tue Oct 20, 2:07pm

Tue Oct 20, 1:04pm

Tue Oct 20, 12:04pm

Tue Oct 20, 11:04am

Tue Oct 20, 10:05am

Tue Oct 20, 9:04am

Tue Oct 20, 8:04am

Tue Oct 20, 7:04am

Tue Oct 20, 6:04am

Tue Oct 20, 5:04am

Tue Oct 20, 4:04am

Tue Oct 20, 3:04am

Tue Oct 20, 2:04am

Tue Oct 20, 1:04am

Tue Oct 20, 12:04am

Mon Oct 19, 11:04pm

Mon Oct 19, 10:04pm

Mon Oct 19, 9:04pm

Mon Oct 19, 8:04pm

Mon Oct 19, 7:04pm

Mon Oct 19, 6:04pm

Mon Oct 19, 5:04pm

Mon Oct 19, 4:04pm

Mon Oct 19, 3:04pm

Mon Oct 19, 2:04pm

Mon Oct 19, 1:05pm

Mon Oct 19, 12:04pm

Mon Oct 19, 11:04am

Mon Oct 19, 10:04am

Mon Oct 19, 9:04am

Mon Oct 19, 8:04am

Mon Oct 19, 7:04am

Mon Oct 19, 6:04am

Mon Oct 19, 5:04am

Meta data:

ID: ede60307-6125-4428-8f61-3920a6e3efae
Link: https://api.weather.gov/products/ede60307-6125-4428-8f61-3920a6e3efae